WD6FGE Weather Reports


Display with metric or nautical units.
time (UTC)temp
F
wind
direction
speed
MPH
gust
MPH
rain 1hr
in
rain 24hr
in
rain mn
in
humidity
%
barometer
mb
20230203013027 40 207 0.0 0.0 0.00 0.00 0.00 59 1025.3
20230203012034 41 207 0.0 0.0 0.00 0.00 0.00 55 1025.4
20230203011059 42 206 0.0 0.0 0.00 0.00 0.00 52 1025.5
20230203010109 43 206 0.0 0.0 0.00 0.00 0.00 50 1025.6
20230203005035 45 206 0.0 0.0 0.00 0.00 0.00 49 1025.6
20230203003922 45 206 0.0 0.0 0.00 0.00 0.00 48 1025.5
20230203002921 46 206 0.0 0.0 0.00 0.00 0.00 47 1025.6
20230203001906 47 206 0.0 0.0 0.00 0.00 0.00 44 1025.6
20230203000726 48 206 0.0 0.0 0.00 0.00 0.00 45 1025.6
20230202235656 48 206 0.0 3.0 0.00 0.00 0.00 44 1025.6
20230202234655 48 182 0.0 0.0 0.00 0.00 0.00 44 1025.7
20230202233603 48 182 0.0 4.0 0.00 0.00 0.00 42 1025.9
20230202232602 49 273 0.0 4.0 0.00 0.00 0.00 41 1025.9
20230202231624 49 292 0.0 1.0 0.00 0.00 0.00 41 1025.9
20230202230633 49 295 0.0 3.0 0.00 0.00 0.00 41 1026.0
20230202225620 49 245 1.0 4.0 0.00 0.00 0.00 40 1026.0
20230202224609 49 238 1.0 5.0 0.00 0.00 0.00 40 1026.2
20230202223604 49 211 2.0 5.0 0.00 0.00 0.00 44 1026.0
20230202222611 49 172 1.0 4.0 0.00 0.00 0.00 44 1025.9
20230202221624 49 183 1.0 4.0 0.00 0.00 0.00 42 1025.9
20230202220447 49 160 1.0 3.0 0.00 0.00 0.00 43 1025.8
20230202215421 49 173 1.0 3.0 0.00 0.00 0.00 42 1026.0
20230202214327 49 184 2.0 3.0 0.00 0.00 0.00 43 1026.1
20230202213351 49 163 1.0 4.0 0.00 0.00 0.00 43 1026.2
20230202212228 48 174 1.0 4.0 0.00 0.00 0.00 44 1026.4
20230202211231 48 227 1.0 4.0 0.00 0.00 0.00 44 1026.6
20230202210232 48 193 1.0 4.0 0.00 0.00 0.00 45 1026.8
20230202205216 48 119 2.0 4.0 0.00 0.00 0.00 44 1026.9
20230202204151 47 150 2.0 5.0 0.00 0.00 0.00 47 1027.2
20230202203206 47 150 1.0 5.0 0.00 0.00 0.00 46 1027.6
20230202202145 46 125 2.0 4.0 0.00 0.00 0.00 49 1027.8
20230202201137 45 170 2.0 4.0 0.00 0.00 0.00 52 1028.0
20230202200004 44 173 1.0 4.0 0.00 0.00 0.00 52 1028.3
20230202194937 43 163 1.0 4.0 0.00 0.00 0.00 54 1028.5
20230202193925 42 174 2.0 4.0 0.00 0.00 0.00 58 1028.8
20230202192853 41 132 2.0 4.0 0.00 0.00 0.00 58 1028.9
20230202191829 40 180 2.0 4.0 0.00 0.00 0.00 59 1029.2
20230202190735 40 140 2.0 5.0 0.00 0.00 0.00 60 1029.3
20230202185552 39 172 2.0 5.0 0.00 0.00 0.00 63 1029.6
20230202184437 38 158 1.0 6.0 0.00 0.00 0.00 67 1029.7
20230202183434 37 167 2.0 6.0 0.00 0.00 0.00 68 1030.0
20230202182435 36 133 1.0 4.0 0.00 0.00 0.00 71 1029.9
20230202181405 35 144 1.0 5.0 0.00 0.00 0.00 74 1030.0
20230202180406 34 167 1.0 5.0 0.00 0.00 0.00 74 1029.9
20230202175358 32 190 0.0 1.0 0.00 0.00 0.00 82 1029.8
20230202174232 30 190 0.0 0.0 0.00 0.00 0.00 85 1030.0
20230202173045 28 190 0.0 2.0 0.00 0.00 0.00 86 1030.1
20230202172049 27 190 1.0 3.0 0.00 0.00 0.00 87 1030.1
20230202171026 25 208 0.0 2.0 0.00 0.00 0.00 87 1029.9
20230202170002 24 203 0.0 2.0 0.00 0.00 0.00 87 1029.8
20230202164900 23 203 0.0 2.0 0.00 0.00 0.00 87 1029.9
20230202163858 22 203 0.0 0.0 0.00 0.00 0.00 87 1029.9
20230202162758 20 203 0.0 0.0 0.00 0.00 0.00 87 1030.1
20230202161738 19 203 0.0 3.0 0.00 0.00 0.00 87 1029.9
20230202160706 18 238 0.0 3.0 0.00 0.00 0.00 87 1029.9
20230202155727 17 238 0.0 0.0 0.00 0.00 0.00 87 1029.8
20230202154709 17 238 0.0 0.0 0.00 0.00 0.00 87 1029.7
20230202153735 17 238 0.0 0.0 0.00 0.00 0.00 87 1029.7
20230202152627 17 238 0.0 1.0 0.00 0.00 0.00 87 1029.7
20230202151649 17 238 0.0 1.0 0.00 0.00 0.00 87 1029.6
20230202150632 17 238 0.0 0.0 0.00 0.00 0.00 87 1029.5
20230202145638 17 238 0.0 0.0 0.00 0.00 0.00 87 1029.4
20230202144611 17 238 0.0 0.0 0.00 0.00 0.00 87 1029.4
20230202143622 17 238 0.0 0.0 0.00 0.00 0.00 87 1029.4
20230202142642 17 238 0.0 0.0 0.00 0.00 0.00 87 1029.2
20230202141510 17 238 0.0 0.0 0.00 0.00 0.00 87 1029.1
20230202140437 17 238 0.0 0.0 0.00 0.00 0.00 87 1029.0
20230202135426 17 238 0.0 1.0 0.00 0.00 0.00 87 1028.9
20230202134428 18 238 0.0 0.0 0.00 0.00 0.00 87 1028.9
20230202133415 18 238 0.0 1.0 0.00 0.00 0.00 87 1028.9
20230202132426 18 238 0.0 0.0 0.00 0.00 0.00 87 1028.9
20230202131401 18 238 0.0 0.0 0.00 0.00 0.00 87 1028.9
20230202130352 18 238 0.0 0.0 0.00 0.00 0.00 87 1028.9
20230202125327 18 238 0.0 0.0 0.00 0.00 0.00 87 1028.9
20230202124337 18 238 0.0 0.0 0.00 0.00 0.00 87 1028.8
20230202123308 18 238 0.0 0.0 0.00 0.00 0.00 87 1028.7
20230202122257 18 238 0.0 0.0 0.00 0.00 0.00 86 1028.5
20230202121154 19 238 0.0 0.0 0.00 0.00 0.00 87 1028.4
20230202120207 19 238 0.0 0.0 0.00 0.00 0.00 86 1028.4
20230202115101 19 238 0.0 2.0 0.00 0.00 0.00 86 1028.2
20230202113933 19 238 0.0 0.0 0.00 0.00 0.00 86 1028.2
20230202112912 19 238 0.0 0.0 0.00 0.00 0.00 86 1028.1
20230202111733 19 238 0.0 0.0 0.00 0.00 0.00 86 1028.2
20230202110733 20 238 0.0 0.0 0.00 0.00 0.00 86 1028.1
20230202105713 20 238 0.0 1.0 0.00 0.00 0.00 86 1028.2
20230202104658 20 238 0.0 0.0 0.00 0.00 0.00 86 1028.0
20230202103711 21 238 0.0 0.0 0.00 0.00 0.00 86 1028.1
20230202102532 21 238 0.0 0.0 0.00 0.00 0.00 86 1028.1
20230202101549 21 238 0.0 0.0 0.00 0.00 0.00 86 1028.0
20230202100557 21 238 0.0 0.0 0.00 0.00 0.00 85 1028.1
20230202095547 21 238 0.0 0.0 0.00 0.00 0.00 85 1028.1
20230202094600 22 238 0.0 0.0 0.00 0.00 0.00 85 1028.1
20230202093604 22 238 0.0 0.0 0.00 0.00 0.00 85 1028.0
20230202092544 22 238 0.0 0.0 0.00 0.00 0.00 84 1027.8
20230202091547 22 238 0.0 0.0 0.00 0.00 0.00 84 1027.6
20230202090602 22 238 0.0 0.0 0.00 0.00 0.00 84 1027.7
20230202085536 23 238 1.0 2.0 0.00 0.00 0.00 85 1027.6
20230202084538 23 238 0.0 2.0 0.00 0.00 0.00 84 1027.7
20230202083431 23 238 0.0 0.0 0.00 0.00 0.00 83 1027.7
20230202082400 23 238 0.0 0.0 0.00 0.00 0.00 83 1027.8
20230202081414 23 238 0.0 0.0 0.00 0.00 0.00 82 1027.7
20230202080408 24 238 0.0 0.0 0.00 0.00 0.00 82 1027.8
20230202075420 24 238 0.0 0.0 0.00 0.00 0.00 82 1027.8
20230202074426 24 238 0.0 0.0 0.00 0.00 0.00 82 1027.9
20230202073409 24 238 0.0 0.0 0.00 0.00 0.00 81 1027.9
20230202072358 24 238 0.0 0.0 0.00 0.00 0.00 82 1027.9
20230202071359 24 238 0.0 0.0 0.00 0.00 0.00 82 1027.9
20230202070213 25 238 0.0 0.0 0.00 0.00 0.00 82 1027.8
20230202065032 25 238 0.0 0.0 0.00 0.00 0.00 81 1027.6
20230202064019 25 238 0.0 1.0 0.00 0.00 0.00 82 1027.5
20230202063017 25 238 0.0 1.0 0.00 0.00 0.00 82 1027.5
20230202062017 25 238 0.0 0.0 0.00 0.00 0.00 81 1027.4
20230202060945 26 238 0.0 0.0 0.00 0.00 0.00 81 1027.3
20230202055926 26 238 0.0 1.0 0.00 0.00 0.00 81 1027.3
20230202054926 26 238 0.0 1.0 0.00 0.00 0.00 80 1027.2
20230202053949 26 238 1.0 2.0 0.00 0.00 0.00 80 1027.1
20230202052934 26 238 0.0 2.0 0.00 0.00 0.00 79 1026.9
20230202051905 27 238 0.0 1.0 0.00 0.00 0.00 79 1026.9
20230202050728 27 238 0.0 0.0 0.00 0.00 0.00 78 1026.9
20230202045716 28 238 0.0 0.0 0.00 0.00 0.00 76 1026.8
20230202044737 29 238 1.0 2.0 0.00 0.00 0.00 78 1026.6
20230202043643 28 237 0.0 2.0 0.00 0.00 0.00 78 1026.5
20230202042659 29 229 0.0 2.0 0.00 0.00 0.00 76 1026.4
20230202041657 30 230 0.0 2.0 0.00 0.00 0.00 75 1026.3
20230202040722 29 211 0.0 0.0 0.00 0.00 0.00 76 1026.3
20230202035600 30 211 0.0 0.0 0.00 0.00 0.00 75 1026.1
20230202034534 30 211 0.0 0.0 0.00 0.00 0.00 75 1026.0
20230202033537 31 211 0.0 0.0 0.00 0.00 0.00 74 1026.0
20230202032601 30 211 0.0 2.0 0.00 0.00 0.00 74 1026.0
20230202031539 30 211 0.0 0.0 0.00 0.00 0.00 71 1025.9
20230202030431 30 211 0.0 0.0 0.00 0.00 0.00 68 1025.8
20230202025454 31 211 0.0 0.0 0.00 0.00 0.00 68 1025.6
20230202024514 31 211 0.0 0.0 0.00 0.00 0.00 67 1025.5
20230202023527 32 211 0.0 0.0 0.00 0.00 0.00 66 1025.4
20230202022527 33 211 0.0 0.0 0.00 0.00 0.00 63 1025.2
20230202021417 34 211 0.0 0.0 0.00 0.00 0.00 61 1025.1
20230202020253 34 211 0.0 0.0 0.00 0.00 0.00 61 1025.1
20230202015309 36 211 0.0 0.0 0.00 0.00 0.00 58 1025.0
20230202014304 36 211 0.0 0.0 0.00 0.00 0.00 56 1025.0
20230202013245 39 211 0.0 0.0 0.00 0.00 0.00 54 1025.0